[[{"header":{"parameterUnit":"m.s-1","parameterCategory":1,"la1":30.2991,"la2":30.254,"lo1":-89.0895,"lo2":-89.0444,"dy":0.0017,"dx":0.0017,"nx":28,"ny":28,"refTime":"2024-04-17T21:00:00:Z","depth":0,"parameterNumber":2,"parameterNumberName":"U-component_of_WINDS"},"data":[0,0,0,0,0,0,0,0,0,0,0,0,0,0,0,0,0,0,0,0,0,0,0,0,0,0,0,0,0,0,0,0,0,0,0,0,0,0,0,0,0,0,0,0,0,0,0,0,0,0,0,0,0,0,0,0,0,0,-0.7046,-0.7045,0,-0.6935,-0.6933,-0.6932,-0.6868,-0.6868,-0.6868,-0.6867,-0.6751,-0.6748,-0.6745,0,0,0,0,0,0,0,0,0,0,0,0,0,-0.7204,-0.7202,-0.7047,-0.7045,-0.7044,-0.6935,-0.6933,-0.6932,-0.6868,-0.6868,-0.6868,-0.6867,-0.6752,-0.6749,-0.6745,0,0,0,0,0,0,0,0,0,0,0,0,0,-0.7118,-0.7201,-0.7047,-0.6999,-0.6993,-0.6935,-0.6933,-0.6931,-0.6868,-0.6868,-0.6867,-0.6867,-0.6753,-0.6749,-0.6745,-0.6725,0,0,-0.6731,-0.673,0,0,0,0,0,0,0,0,-0.7123,-0.7113,-0.7007,-0.7002,-0.6996,-0.6915,-0.6946,-0.6862,-0.6868,-0.6916,-0.6867,-0.6867,-0.6806,-0.6797,-0.6777,-0.6719,-0.6714,-0.6731,-0.6728,-0.6727,-0.6725,0,0,0,0,0,0,0,-0.7129,-0.7117,-0.7002,-0.7006,-0.6999,-0.6983,-0.697,-0.693,-0.6864,-0.6912,-0.6907,-0.6894,-0.6803,-0.6781,-0.6774,-0.6713,-0.6731,-0.6727,-0.6725,-0.6723,-0.6634,-0.6635,0,0,0,0,0,0,-0.7143,-0.7123,-0.7006,-0.6999,-0.706,-0.698,-0.6966,-0.6941,-0.6864,-0.6852,-0.6895,-0.6892,-0.6789,-0.6779,-0.6769,-0.6741,-0.6727,-0.6723,-0.672,-0.6634,-0.6634,-0.6635,0,0,0,0,0,0,-0.7147,-0.7133,-0.701,-0.7059,-0.7042,-0.6978,-0.695,-0.6939,-0.6918,-0.6852,-0.6839,-0.6885,-0.6788,-0.6775,-0.6737,-0.6736,-0.6721,-0.6717,-0.6634,-0.6634,-0.6635,-0.6685,0,0,0,0,0,0,-0.7152,-0.7135,-0.7127,-0.706,-0.704,-0.698,-0.695,-0.6937,-0.6911,-0.6906,-0.6839,-0.6828,-0.6787,-0.6744,-0.6733,-0.673,-0.6713,-0.6634,-0.6634,-0.6635,-0.6684,-0.6688,-0.6691,0,0,0,0,0,-0.7157,-0.7145,-0.7127,-0.7113,-0.7029,-0.698,-0.6969,-0.6922,-0.6911,-0.6902,-0.686,-0.683,-0.6739,-0.674,-0.6727,-0.6724,-0.6633,-0.6634,-0.6634,-0.6682,-0.6687,-0.6691,0,0,0,0,0,0,-0.7213,-0.7135,-0.7114,-0.708,-0.7037,-0.6969,-0.6957,-0.6929,-0.6888,-0.6885,-0.6829,-0.6814,-0.6781,-0.6748,-0.6752,-0.6701,-0.6683,-0.6681,-0.6723,-0.6727,-0.6731,-0.6739,-0.671,0,0,0,0,0,-0.7222,-0.7189,-0.7123,-0.7099,-0.7079,-0.7022,-0.6999,-0.6967,-0.692,-0.6901,-0.6856,-0.6812,-0.6773,-0.6748,-0.6709,-0.6679,-0.6664,-0.667,-0.6674,-0.6677,-0.6676,-0.6658,-0.666,-0.6637,-0.6637,-0.6637,0,0,-0.7238,-0.7192,-0.7175,-0.7109,-0.7072,-0.7039,-0.7007,-0.6973,-0.6948,-0.6896,-0.6857,-0.6823,-0.6769,-0.6735,-0.6718,-0.6707,-0.6679,-0.6678,-0.6681,-0.6678,-0.6659,-0.6661,-0.6663,-0.6637,-0.6637,-0.6637,0,0,-0.7252,-0.7214,-0.719,-0.7154,-0.7099,-0.7062,-0.7056,-0.6993,-0.6968,-0.6928,-0.6889,-0.6858,-0.6792,-0.6756,-0.6729,-0.6731,-0.6702,-0.672,-0.6739,-0.6723,-0.6725,-0.6726,-0.6727,-0.6728,-0.6719,-0.6719,-0.6719,0,-0.728,-0.7229,-0.7181,-0.715,-0.7123,-0.7075,-0.705,-0.7018,-0.6953,-0.6935,-0.6924,-0.6841,-0.6802,-0.6759,-0.676,-0.6739,-0.6731,-0.6727,-0.6728,-0.6729,-0.673,-0.673,-0.673,-0.6722,-0.6722,-0.6721,-0.6721,0,-0.7266,-0.7232,-0.7219,-0.7158,-0.7129,-0.7102,-0.705,-0.7026,-0.6997,-0.6961,-0.6922,-0.6873,-0.6823,-0.6811,-0.6782,-0.6764,-0.6759,-0.6739,-0.672,-0.6735,-0.6735,-0.6734,-0.6725,-0.6725,-0.6724,-0.6723,0,0,-0.7311,-0.7225,-0.7221,-0.7193,-0.713,-0.7102,-0.7073,-0.7025,-0.7006,-0.6963,-0.6937,-0.6884,-0.6865,-0.6835,-0.6801,-0.6787,-0.6792,-0.6768,-0.6766,-0.6774,-0.677,-0.6785,-0.6786,-0.6773,-0.6773,-0.6773,-0.6774,0,-0.7315,-0.7261,-0.7217,-0.7179,-0.7146,-0.7101,-0.7076,-0.7034,-0.7,-0.6968,-0.693,-0.6893,-0.6871,-0.6852,-0.6836,-0.6795,-0.679,-0.6794,-0.6748,-0.6747,-0.6762,-0.6786,-0.6801,-0.6805,-0.6774,-0.6774,-0.6774,0,-0.7313,-0.7273,-0.7232,-0.7172,-0.7157,-0.7135,-0.7088,-0.7058,-0.701,-0.6986,-0.6953,-0.6919,-0.6886,-0.6871,-0.6825,-0.6829,-0.6807,-0.6785,-0.6784,-0.6777,-0.6761,-0.6779,-0.6805,-0.6806,-0.6773,-0.6773,-0.6773,0,-0.735,-0.7285,-0.7252,-0.723,-0.716,-0.7146,-0.7116,-0.7067,-0.7042,-0.7001,-0.6984,-0.694,-0.6916,-0.6882,-0.6837,-0.683,-0.6796,-0.6777,-0.6775,-0.6776,-0.6769,-0.677,-0.6792,-0.6756,-0.6756,-0.6756,-0.6756,0,-0.7359,-0.7336,-0.7268,-0.7248,-0.722,-0.7171,-0.7145,-0.7111,-0.7069,-0.7041,-0.7,-0.6975,-0.6917,-0.6885,-0.685,-0.6817,-0.6806,-0.6786,-0.6777,-0.679,-0.6792,-0.6774,-0.6773,-0.6757,-0.6757,-0.6757,-0.6757,0,-0.7396,-0.7349,-0.731,-0.7248,-0.7232,-0.7214,-0.716,-0.7139,-0.7103,-0.7069,-0.7058,-0.7001,-0.6962,-0.6914,-0.6858,-0.6835,-0.6806,-0.6792,-0.6822,-0.6817,-0.6818,-0.6819,-0.6828,-0.6827,-0.6794,-0.6794,-0.6794,0,-0.7405,-0.7386,-0.7321,-0.73,-0.7272,-0.7238,-0.7212,-0.7163,-0.7137,-0.7082,-0.7068,-0.7025,-0.6988,-0.6927,-0.6881,-0.6839,-0.6824,-0.683,-0.6817,-0.6831,-0.6824,-0.6825,-0.6823,-0.6833,-0.6834,-0.6835,-0.6835,0,-0.7426,-0.7404,-0.7368,-0.7325,-0.7295,-0.7258,-0.722,-0.7205,-0.7148,-0.7121,-0.7081,-0.7052,-0.6997,-0.6955,-0.6907,-0.6876,-0.6846,-0.684,-0.6837,-0.685,-0.6868,-0.6858,-0.6831,-0.6839,-0.6839,-0.6839,-0.6838,-0.6838,-0.7448,-0.7429,-0.7382,-0.7343,-0.7309,-0.7275,-0.7252,-0.7213,-0.7179,-0.713,-0.7103,-0.7063,-0.7017,-0.6949,-0.692,-0.6888,-0.6877,-0.6873,-0.6872,-0.6872,-0.6876,-0.6874,-0.6879,-0.6879,-0.6879,-0.6879,-0.6879,0,-0.7467,-0.7434,-0.74,-0.7347,-0.7318,-0.7293,-0.7249,-0.7226,-0.7192,-0.7151,-0.7116,-0.707,-0.703,-0.6981,-0.6938,-0.6922,-0.6907,-0.6912,-0.6912,-0.6906,-0.6888,-0.6895,-0.6924,-0.6924,-0.6924,-0.6924,-0.6924,-0.6924,-0.7473,-0.7441,-0.7413,-0.7364,-0.7331,-0.7292,-0.7269,-0.7237,-0.7204,-0.7155,-0.7121,-0.709,-0.7046,-0.7,-0.6962,-0.6948,-0.6934,-0.6944,-0.6926,-0.6911,-0.6907,-0.6903,-0.6909,-0.6941,-0.6941,-0.6946,-0.6946,-0.6946]},{"header":{"parameterUnit":"m.s-1","parameterCategory":1,"la1":30.2991,"la2":30.254,"lo1":-89.0895,"lo2":-89.0444,"dy":0.0017,"dx":0.0017,"nx":28,"ny":28,"refTime":"2024-04-17T21:00:00:Z","depth":0,"parameterNumber":3,"parameterNumberName":"V-component_of_WINDS"},"data":[0,0,0,0,0,0,0,0,0,0,0,0,0,0,0,0,0,0,0,0,0,0,0,0,0,0,0,0,0,0,0,0,0,0,0,0,0,0,0,0,0,0,0,0,0,0,0,0,0,0,0,0,0,0,0,0,0,0,3.1758,3.1758,0,3.1704,3.1703,3.1702,3.1712,3.1713,3.1714,3.1715,3.1653,3.165,3.1648,0,0,0,0,0,0,0,0,0,0,0,0,0,3.1866,3.1864,3.1759,3.1758,3.1757,3.1704,3.1703,3.1702,3.1712,3.1713,3.1714,3.1715,3.1654,3.1651,3.1648,0,0,0,0,0,0,0,0,0,0,0,0,0,3.1816,3.1864,3.1759,3.1756,3.1755,3.1704,3.1703,3.1702,3.1712,3.1713,3.1715,3.1716,3.1655,3.1651,3.1647,3.1594,0,0,3.1635,3.1634,0,0,0,0,0,0,0,0,3.1819,3.1812,3.1757,3.1756,3.1755,3.1716,3.1718,3.1666,3.1711,3.1728,3.1715,3.1717,3.1672,3.1667,3.1653,3.1591,3.1588,3.1635,3.1633,3.1631,3.163,0,0,0,0,0,0,0,3.1822,3.1814,3.1737,3.1756,3.1755,3.1755,3.175,3.1708,3.1692,3.1727,3.1727,3.1721,3.1672,3.1657,3.1652,3.1587,3.1635,3.1632,3.1629,3.1628,3.1478,3.1477,0,0,0,0,0,0,3.1828,3.1817,3.1738,3.1735,3.1791,3.1752,3.1746,3.1727,3.1693,3.1689,3.172,3.1722,3.1663,3.1657,3.165,3.1585,3.1631,3.1627,3.1625,3.148,3.1478,3.1476,0,0,0,0,0,0,3.183,3.182,3.1741,3.1776,3.1766,3.1749,3.1727,3.1725,3.171,3.1688,3.1684,3.1708,3.1664,3.1655,3.1608,3.1583,3.1626,3.1622,3.1482,3.1479,3.1477,3.1455,0,0,0,0,0,0,3.1833,3.1821,3.1802,3.1776,3.1764,3.1701,3.1726,3.1723,3.1704,3.1706,3.1676,3.1672,3.1664,3.1614,3.1604,3.1579,3.1619,3.1484,3.1481,3.1478,3.1458,3.1453,3.1448,0,0,0,0,0,3.1837,3.1797,3.1801,3.1791,3.174,3.17,3.1693,3.1687,3.1703,3.1682,3.1668,3.1673,3.1588,3.1609,3.1598,3.1571,3.1485,3.1482,3.1478,3.1461,3.1454,3.1448,0,0,0,0,0,0,3.1818,3.1793,3.1798,3.1748,3.1726,3.1702,3.1676,3.168,3.1651,3.1654,3.1646,3.1639,3.1591,3.1576,3.16,3.1518,3.1539,3.1532,3.1529,3.1522,3.1517,3.1521,3.1616,0,0,0,0,0,3.1808,3.1779,3.1759,3.1717,3.1706,3.1693,3.1675,3.1673,3.1649,3.1639,3.1621,3.1596,3.1563,3.1542,3.1511,3.1457,3.1449,3.1433,3.1427,3.1423,3.1417,3.1387,3.1379,3.1464,3.1464,3.1464,0,0,3.1787,3.177,3.1752,3.1713,3.1696,3.1664,3.1685,3.1651,3.1627,3.1633,3.1588,3.1574,3.1545,3.1494,3.1471,3.1481,3.1393,3.1418,3.1415,3.1412,3.1383,3.1375,3.1368,3.1461,3.1462,3.1462,0,0,3.1733,3.1718,3.1682,3.1665,3.1639,3.1631,3.1622,3.1597,3.1589,3.1544,3.1548,3.1519,3.1463,3.1443,3.1425,3.1365,3.1369,3.1355,3.1327,3.1298,3.1291,3.1285,3.1263,3.1255,3.135,3.135,3.135,0,3.171,3.1665,3.1662,3.1628,3.161,3.1617,3.158,3.1562,3.1527,3.1514,3.1526,3.1457,3.1438,3.1383,3.1368,3.1354,3.1343,3.1358,3.1293,3.1286,3.1281,3.126,3.1251,3.1348,3.1349,3.1349,3.1349,0,3.1637,3.1606,3.1579,3.1548,3.1527,3.1491,3.1482,3.1461,3.146,3.145,3.1404,3.1382,3.1347,3.1334,3.1332,3.1278,3.1285,3.1295,3.1315,3.1271,3.1251,3.1243,3.1346,3.1347,3.1347,3.1348,0,0,3.1568,3.1537,3.1527,3.1513,3.1486,3.1461,3.1425,3.1393,3.1375,3.1351,3.1319,3.1273,3.1283,3.1263,3.1259,3.1233,3.1187,3.1246,3.1245,3.1235,3.1125,3.1117,3.1108,3.1189,3.1188,3.1187,3.1127,0,3.1511,3.1451,3.1448,3.1391,3.1362,3.1369,3.1337,3.1316,3.1306,3.1278,3.1266,3.1234,3.1249,3.1237,3.1212,3.1198,3.1164,3.1202,3.1159,3.1157,3.1165,3.1097,3.1089,3.1034,3.1119,3.1118,3.1117,0,3.1436,3.1412,3.1354,3.1332,3.132,3.1292,3.1262,3.1236,3.1212,3.1207,3.1185,3.1185,3.1147,3.117,3.1117,3.1143,3.1125,3.1115,3.1113,3.1108,3.1134,3.109,3.1016,3.1008,3.1105,3.1106,3.1106,0,3.1392,3.1344,3.1304,3.1291,3.1265,3.1245,3.1232,3.121,3.1191,3.1165,3.1152,3.1121,3.1104,3.1079,3.107,3.1088,3.1017,3.1039,3.101,3.101,3.0994,3.0994,3.0915,3.0983,3.0984,3.0984,3.0984,0,3.1328,3.1292,3.1283,3.1258,3.1217,3.1214,3.1173,3.1162,3.1142,3.1114,3.1117,3.1089,3.108,3.1051,3.1043,3.1,3.0992,3.0985,3.0984,3.0985,3.0985,3.0972,3.0975,3.0981,3.0982,3.0982,3.0983,0,3.127,3.1263,3.1219,3.1199,3.1192,3.1163,3.1145,3.1119,3.1111,3.1075,3.1066,3.1051,3.1017,3.1006,3.0964,3.0959,3.0908,3.091,3.0917,3.0916,3.0888,3.089,3.0796,3.0784,3.0861,3.086,3.0859,0,3.123,3.1203,3.118,3.1162,3.115,3.112,3.1102,3.1097,3.1077,3.1049,3.1027,3.0994,3.0967,3.0912,3.0896,3.0864,3.0864,3.0834,3.0859,3.0862,3.0863,3.0865,3.0862,3.0829,3.0828,3.0827,3.0827,0,3.1158,3.1157,3.1131,3.1104,3.1083,3.106,3.1039,3.1024,3.1016,3.0993,3.096,3.0939,3.0897,3.0864,3.0832,3.0817,3.082,3.0819,3.081,3.0811,3.0816,3.0812,3.0903,3.0821,3.0821,3.0822,3.0822,3.0822,3.1108,3.1084,3.1065,3.1036,3.102,3.1,3.0976,3.0965,3.0938,3.0905,3.0904,3.0867,3.0843,3.0801,3.0785,3.0755,3.0763,3.0751,3.0748,3.0744,3.0742,3.0821,3.0749,3.0749,3.0749,3.0749,3.0749,0,3.1036,3.1025,3.0998,3.097,3.0947,3.0955,3.0932,3.0911,3.088,3.0859,3.0833,3.0794,3.0762,3.0745,3.0712,3.0692,3.0692,3.0683,3.0684,3.0681,3.0736,3.0747,3.0683,3.0683,3.0683,3.0683,3.0683,3.0683,3.0996,3.0957,3.0953,3.0905,3.0893,3.0859,3.0845,3.0827,3.081,3.0768,3.0742,3.0732,3.0712,3.0678,3.0649,3.0644,3.0632,3.0622,3.0618,3.067,3.0677,3.0683,3.0693,3.0619,3.0619,3.0565,3.0564,3.0564]}]]